Skip Page Navigation
NASA JPL Caltech
NASA Logo - Jet Propulsion Laboratory + View the NASA Portal
+ Center for Near-Earth Object Studies
JPL Home Earth Solar System Stars & Galaxies Technology
JPL Solar System Dynamics
BODIES ORBITS EPHEMERIDES TOOLS PHYSICAL DATA DISCOVERY FAQ SITE MAP

Significant website upgrade scheduled for September 27. More details available here.

JPL Small-Body Database Browser
Search: [ help ]  
26980 (1997 UQ10)
Classification: Main-belt Asteroid          SPK-ID: 2026980
Ephemeris | Orbit Diagram | Orbital Elements | Mission Design | Physical Parameters | Discovery Circumstances ]

[ show orbit diagram ]
Orbital Elements at Epoch 2459396.5 (2021-Jul-01.0) TDB
Reference: JPL 29 (heliocentric ecliptic J2000)
 Element Value Uncertainty (1-sigma)   Units 
e .2571791006091771 3.8395e-08  
a 2.603823848575795 8.767e-09 au
q 1.934174773054345 1.0132e-07 au
i 4.792964427316747 3.1899e-06 deg
node 145.0225140400565 5.0276e-05 deg
peri 234.2026895519645 5.053e-05 deg
M 231.4262346588488 5.9929e-06 deg
tp 2459944.607430034079
(2022-Dec-31.10743003)
2.6755e-05 TDB
period 1534.672911606136
4.20
7.7508e-06
2.122e-08
d
yr
n .2345776727258686 1.1847e-09 deg/d
Q 3.273472924097244 1.1022e-08 au
  Orbit Determination Parameters
   # obs. used (total)      1207  
   data-arc span      11024 days (30.18 yr)  
   first obs. used      1991-04-06  
   last obs. used      2021-06-11  
   planetary ephem.      DE441  
   SB-pert. ephem.      SB441-N16  
   condition code      0  
   norm. resid. RMS      .48906  
   source      ORB  
   producer      Otto Matic  
   solution date      2021-Aug-25 15:38:07  

Additional Information
 Earth MOID = .940084 au 
 Jupiter MOID = 2.19815 au 
 T_jup = 3.361 
[ show covariance matrix ]

Ephemeris | Orbit Diagram | Orbital Elements | Mission Design | Physical Parameters | Discovery Circumstances ]

Physical Parameter Table
Parameter Symbol Value Units Sigma Reference Notes
absolute magnitude H 15.22   n/a E2021B10  
rotation period rot_per 5.30207 h n/a LCDB (Rev. 2020-October); Warner et al., 2009 Result based on less than full coverage, so that the period may be wrong by 30 percent or so.
Published Reference List:
[Pal, A.; Szakats, R.; Kiss, C.; Bodi, A.; et al. (2019) Ap. J. Supl. Ser. 247, id.26.]

26980 (1997 UQ10)          Discovered 1997-Oct-29 by Zoltowski, F. B. at Woomera
Reference: 20010804/Numbers.arcLast Updated: 2004-04-19
Ephemeris | Orbit Diagram | Orbital Elements | Mission Design | Physical Parameters | Discovery Circumstances ]
ABOUT SSD CREDITS/AWARDS PRIVACY/COPYRIGHT GLOSSARY LINKS
FirstGov 2021-Sep-21 12:42 UT
(server date/time)  
NASA Home Page
Site Manager:   Ryan S. Park
Webmaster  Alan B. Chamberlin